www.pogodaiklimat.ru

Погода и климат >> Архив погоды >> Австралия >> Северная территория >> Теннант-Крик


ПОГОДА в Теннант-Крике

  • Прогноз погоды в Теннант-Крике
  • Монитор погоды в Теннант-Крике

АРХИВ ПОГОДЫ в Теннант-Крике

Время (UTC), дата Ветер
(напр.,м/с)
 
Видим.   Явления Облачность Т
(С)
Тd
(С)
f
(%)
Тe
(С)
Тes
(С)
Комфортность P
(гПа)
Po
(гПа)
Тmin
(С)
Tmax
(С)
R
(мм)
R24
(мм)
S
(см)
05 9.01 С 2 н/о н/о +40.9 -1.6 7 +37 +37 очень
жарко
1004.8 963.5
06 9.01 В 6 н/о н/о +40.7 -1.8 7 +37 +37 очень
жарко
1003.8 962.6
08 9.01 ЮВ 5 н/о н/о +40.6 -1.9 7 +37 +37 очень
жарко
1003.3 962.1
09 9.01 Ю 2 н/о н/о +40.5 -1.9 7 +36 +36 очень
жарко
1003.6 962.4
11 9.01 ЮВ 4 н/о н/о +36.0 -1.8 9 +32 +32 жарко 1004.8 963.5
12 9.01 В 3 н/о н/о +33.7 -2.1 10 +30 +30 жарко 1005.2 963.9
14 9.01 В 5 н/о н/о +33.2 -2.5 10 +29 +29 жарко 1005.9 964.6
15 9.01 В 5 н/о н/о +32.5 -3.0 10 +29 +29 жарко 1005.9 964.6
17 9.01 В 7 н/о н/о +30.4 -4.6 10 +27 +27 жарко 1005.4 964.1
18 9.01 В 7 н/о н/о +30.7 -4.4 10 +27 +27 жарко 1005.1 963.8
20 9.01 В 6 н/о н/о +29.2 -3.1 12 +26 +26 жарко 1006.3 965.0
21 9.01 ЮВ 5 н/о н/о +29.1 -2.1 13 +26 +26 жарко 1007.4 966.0
23 9.01 ЮВ 7 н/о н/о +33.4 -2.3 10 +30 +30 жарко 1008.4 967.0
00 10.01 В 6 н/о н/о +36.1 -1.7 9 +32 +32 жарко 1008.4 967.0
02 10.01 ЮВ 4 н/о н/о +38.8 -3.2 7 +35 +35 очень
жарко
1007.0 965.7
03 10.01 З 3 н/о н/о +40.1 -4.3 6 +36 +36 очень
жарко
1006.1 964.8
05 10.01 ЮВ 3 н/о н/о +41.1 -3.6 6 +37 +37 очень
жарко
1003.6 962.4
06 10.01 Ю 3 н/о н/о +41.3 -3.4 6 +37 +37 очень
жарко
1002.9 961.7
08 10.01 ЮВ 6 н/о н/о +41.3 -3.4 6 +37 +37 очень
жарко
1002.5 961.3
09 10.01 Ю 4 н/о н/о +40.7 -3.9 6 +37 +37 очень
жарко
1002.8 961.6
11 10.01 Ю 3 н/о н/о +37.0 -2.7 8 +33 +33 жарко 1003.8 962.6
12 10.01 Ю 3 н/о н/о +36.1 -1.7 9 +32 +32 жарко 1004.4 963.2
14 10.01 ЮВ 4 н/о н/о +34.7 -1.4 10 +31 +31 жарко 1004.8 963.5
15 10.01 ЮВ 4 н/о н/о +34.8 -1.3 10 +31 +31 жарко 1004.3 963.1
17 10.01 ЮВ 3 н/о н/о +32.5 -0.5 12 +29 +29 жарко 1003.5 962.3
18 10.01 ЮВ 3 н/о н/о +32.8 +0.8 13 +30 +30 жарко 1003.6 962.4
20 10.01 Ю 5 н/о н/о +32.0 +3.1 16 +29 +29 жарко 1004.5 963.3
21 10.01 ЮВ 3 н/о н/о +31.8 +4.6 18 +30 +30 жарко 1005.3 964.0
23 10.01 ЮВ 6 н/о н/о +37.3 +9.0 18 +36 +36 очень
жарко
1005.8 964.5
00 11.01 ЮВ 6 н/о н/о +39.2 +8.8 16 +37 +37 очень
жарко
1005.8 964.5
02 11.01 ЮВ 7 н/о н/о +42.4 +4.4 10 +39 +39 очень
жарко
1004.8 963.5
03 11.01 ЮВ 7 н/о н/о +43.4 +3.7 9 +40 +40 очень
жарко
1004.0 962.8
05 11.01 В 4 н/о н/о +43.1 +3.4 9 +40 +40 очень
жарко
1002.6 961.4
06 11.01 В 6 н/о н/о +43.7 +3.9 9 +41 +41 опасность
перегрева
1001.9 960.8
08 11.01 В 5 н/о н/о +43.3 +7.7 12 +41 +41 опасность
перегрева
1001.2 960.1
09 11.01 ЮВ 5 н/о н/о +42.3 +8.1 13 +40 +40 очень
жарко
1001.8 960.7
11 11.01 В 6 н/о н/о +39.5 +13.1 21 +39 +39 очень
жарко
1003.7 962.5
12 11.01 ЮВ 8 н/о н/о +37.4 +14.0 25 +38 +38 душно 1004.4 963.2
14 11.01 В 4 н/о н/о +36.0 +14.6 28 +37 +37 душно 1005.4 964.1
15 11.01 ЮВ 4 н/о н/о +36.3 +13.7 26 +37 +37 очень
жарко
1005.3 964.0
17 11.01 Ю 4 н/о н/о +33.8 +13.8 30 +35 +35 очень
жарко
1005.6 964.3
18 11.01 Ю 4 н/о н/о +32.6 +13.8 32 +34 +34 очень
жарко
1005.4 964.1
20 11.01 В 4 н/о н/о +31.8 +14.0 34 +33 +33 жарко 1006.6 965.3
21 11.01 СВ 6 н/о н/о +31.1 +18.8 48 +36 +36 очень
душно
1007.7 966.3
23 11.01 СВ 7 н/о н/о +33.5 +20.6 47 +40 +40 очень
душно
1008.6 967.2
00 12.01 СВ 6 н/о н/о +36.1 +21.5 43 +44 +44 опасность
перегрева
1008.7 967.3
02 12.01 В 8 н/о н/о +37.8 +17.7 31 +41 +41 опасность
перегрева
1007.9 966.5
03 12.01 В 9 н/о н/о +39.3 +16.2 26 +41 +41 опасность
перегрева
1007.0 965.7
05 12.01 В 9 н/о н/о +41.4 +13.9 20 +42 +42 опасность
перегрева
1005.1 963.8
06 12.01 В 9 н/о н/о +40.5 +12.4 19 +40 +40 очень
жарко
1004.2 963.0
08 12.01 В 9 н/о н/о +41.0 +12.8 19 +41 +41 опасность
перегрева
1003.1 961.9
09 12.01 ЮВ 10 н/о н/о +38.2 +14.1 24 +39 +39 очень
душно
1004.1 962.9
11 12.01 В 5 н/о н/о +36.9 +12.4 23 +37 +37 очень
жарко
1006.2 964.9
12 12.01 В 4 н/о н/о +36.5 +12.7 24 +36 +36 очень
жарко
1006.4 965.1
14 12.01 СВ 8 н/о н/о +28.5 +20.8 63 +36 +36 очень
душно
1008.2 966.8
15 12.01 С 6 н/о н/о +28.0 +16.9 51 +32 +32 душно 1008.2 966.8
17 12.01 СВ 3 н/о н/о +28.0 +18.7 57 +33 +33 очень
душно
1007.6 966.2
18 12.01 СВ 3 н/о н/о +28.1 +19.1 58 +33 +33 очень
душно
1006.6 965.3
20 12.01 СВ 3 н/о н/о +27.5 +19.6 62 +33 +33 очень
душно
1007.0 965.7
21 12.01 штиль 0 н/о н/о +27.7 +19.8 62 +34 +34 очень
душно
1008.0 966.6
23 12.01 С 3 н/о н/о +31.8 +19.1 47 +37 +37 очень
душно
1009.4 968.0
00 13.01 СВ 3 н/о н/о +33.9 +18.4 40 +38 +38 очень
душно
1009.1 967.7
02 13.01 В 7 н/о н/о +35.9 +16.1 31 +38 +38 очень
душно
1008.7 967.3
03 13.01 В 7 н/о н/о +37.7 +16.6 29 +40 +40 очень
душно
1007.6 966.2
05 13.01 В 9 н/о н/о +39.1 +15.5 25 +40 +40 очень
душно
1004.9 963.6
06 13.01 В 6 н/о н/о +39.1 +15.5 25 +40 +40 очень
душно
1004.3 963.1
08 13.01 В 9 н/о н/о +39.4 +9.8 17 +38 +38 очень
жарко
1003.3 962.1
09 13.01 В 7 н/о н/о +39.5 +9.0 16 +38 +38 очень
жарко
1003.7 962.5
11 13.01 ЮЗ 3 н/о н/о +33.6 +14.6 32 +35 +35 душно 1004.9 963.6
12 13.01 штиль 0 н/о н/о +32.5 +14.1 33 +34 +34 очень
жарко
1005.3 964.0
14 13.01 С 7 н/о н/о +31.9 +17.4 42 +36 +36 очень
душно
1006.2 964.9
15 13.01 С 6 н/о н/о +30.5 +16.5 43 +34 +34 очень
душно
1006.0 964.7
17 13.01 С 4 н/о н/о +28.9 +17.1 49 +33 +33 очень
душно
1005.5 964.2
18 13.01 С 4 н/о н/о +28.3 +18.4 55 +33 +33 очень
душно
1005.6 964.3
20 13.01 СЗ 3 н/о н/о +26.6 +19.7 66 +32 +32 очень
душно
1006.6 965.3
21 13.01 СЗ 1 н/о н/о +26.6 +20.0 67 +33 +33 очень
душно
1007.3 965.9
23 13.01 СЗ 3 н/о н/о +30.3 +18.7 50 +35 +35 очень
душно
1008.0 966.6
00 14.01 С 4 н/о н/о +32.0 +16.7 40 +35 +35 очень
душно
1008.1 966.7
02 14.01 СВ 4 н/о н/о +36.6 +16.2 30 +39 +39 очень
душно
1007.2 965.8
03 14.01 СВ 7 н/о н/о +36.9 +12.4 23 +37 +37 очень
жарко
1006.0 964.7
05 14.01 СВ 6 н/о н/о +38.5 +11.5 20 +38 +38 очень
жарко
1004.0 962.8
06 14.01 СВ 9 н/о н/о +39.8 +9.2 16 +38 +38 очень
жарко
1003.4 962.2
08 14.01 СВ 9 н/о н/о +38.9 +10.3 18 +38 +38 очень
жарко
1003.0 961.8
09 14.01 В 8 н/о н/о +38.1 +9.6 18 +37 +37 очень
жарко
1003.2 962.0
11 14.01 СВ 4 н/о н/о +35.6 +11.9 24 +35 +35 очень
жарко
1004.7 963.4
12 14.01 С 3 н/о н/о +34.2 +12.0 26 +34 +34 очень
жарко
1005.3 964.0
14 14.01 С 8 н/о н/о +33.1 +13.7 31 +34 +34 очень
жарко
1006.0 964.7
15 14.01 С 6 н/о н/о +32.3 +14.9 35 +34 +34 душно 1006.0 964.7
17 14.01 С 5 н/о н/о +30.6 +16.6 43 +34 +34 очень
душно
1005.6 964.3
18 14.01 С 5 н/о н/о +29.6 +17.1 47 +33 +33 душно 1005.8 964.5
20 14.01 С 4 н/о н/о +28.4 +18.5 55 +33 +33 очень
душно
1006.9 965.6
21 14.01 С 3 н/о н/о +28.1 +18.8 57 +33 +33 очень
душно
1008.4 967.0
23 14.01 С 4 н/о н/о +32.1 +19.4 47 +38 +38 очень
душно
1009.0 967.6
00 15.01 С 3 н/о н/о +33.4 +18.0 40 +38 +38 очень
душно
1008.6 967.2
02 15.01 Ю 2 н/о н/о +37.1 +16.6 30 +40 +40 очень
душно
1007.6 966.2
03 15.01 СВ 4 н/о н/о +37.0 +14.3 26 +38 +38 душно 1006.5 965.2
05 15.01 В 7 н/о н/о +39.2 +12.9 21 +39 +39 очень
жарко
1004.7 963.4
06 15.01 В 5 н/о н/о +39.3 +12.2 20 +39 +39 очень
жарко
1003.6 962.4
08 15.01 СВ 5 н/о н/о +39.5 +11.6 19 +39 +39 очень
жарко
1002.8 961.6
09 15.01 В 5 н/о н/о +39.2 +12.1 20 +39 +39 очень
жарко
1003.1 961.9
11 15.01 СВ 3 н/о н/о +37.1 +12.5 23 +37 +37 очень
жарко
1004.0 962.8
12 15.01 СВ 3 н/о н/о +36.2 +13.0 25 +36 +36 очень
жарко
1004.5 963.3
14 15.01 С 7 н/о н/о +31.0 +18.7 48 +36 +36 очень
душно
1006.1 964.8
15 15.01 С 5 н/о н/о +30.8 +18.8 49 +36 +36 очень
душно
1005.8 964.5
17 15.01 С 5 н/о н/о +29.8 +18.6 51 +35 +35 очень
душно
1005.4 964.1
18 15.01 С 5 н/о н/о +29.4 +18.5 52 +34 +34 очень
душно
1005.3 964.0
20 15.01 С 4 н/о н/о +28.6 +19.5 58 +34 +34 очень
душно
1006.5 965.2
21 15.01 С 3 н/о н/о +28.4 +19.6 59 +34 +34 очень
душно
1007.7 966.3
23 15.01 СЗ 5 н/о н/о +32.7 +19.2 45 +38 +38 очень
душно
1008.6 967.2
00 16.01 СЗ 3 н/о н/о +33.8 +17.9 39 +38 +38 очень
душно
1008.6 967.2
02 16.01 С 4 н/о н/о +35.7 +16.4 32 +38 +38 очень
душно
1007.6 966.2

 

Местоположение метеостанции Теннант-Крик (Северная территория, Австралия): широта -19.63 долгота 134.18 высота над уровнем моря 377 м.

В архиве по умолчанию представлена погода в Теннант-Крике за последнюю неделю. Архивные данные за месяц целиком и за предыдущие месяцы, начиная с января 2011 года, Вы можете получить, выбрав интересующий диапазон дат из раскрывающегося списка и нажав кнопку "Ввод!".


*Определитесь, кто Вы:
робот инопланетянин человек

Внимание! Время в таблицах - всемирное. Для получения местного времени необходимо прибавить поправку, которая равна 9.5 ч.

Смотрите также архив погоды в соседних городах и на ближайших метеорологических станциях:

Погода на Виноградной ферма (Северная территория, Австралия) (319 км)
Погода в Дейли Уотерс (Северная территория, Австралия) (386 км)
Погода в Ладжаману (Северная территория, Австралия) (400 км)
Погода в Аэропорту Макартур Ривер Майн (Северная территория, Австралия) (408 км)
Погода в Камоауиле (Квинсленд, Австралия) (413 км)
Погода в Джервойсе (Северная территория, Австралия) (422 км)
Погода в Раббит Флат (Северная территория, Австралия) (439 км)
Погода в Борролооле (Северная территория, Австралия) (454 км)
Погода в Элис-Спрингсе (Северная территория, Австралия) (465 км)
Погода на Руднике Century Mine (Квинсленд, Австралия) (485 км)

Пояснения к столбцам:

Ветер - указаны скорость ветра в м/с - средняя за 10 мин, порывы в срок и между сроками (в фигурных скобках) и направление, откуда дует ветер: С - северный, СВ - северо-восточный, В - восточный, ЮВ - юго-восточный, Ю - южный, ЮЗ - юго-западный, З - западный, СЗ - северо-западный.
Видимость - горизонтальная дальность видимости в метрах или километрах. При видимости от 1 до 10 км при отсутствии осадков обычно наблюдается дымка, при ухудшении видимости до 1 км и менее - туман. В сухую погоду видимость может ухудшаться дымом, пылью или мглою.
Явления - указаны атмосферные явления, наблюдавшиеся в срок или в последний час перед сроком; фигурными скобками обозначены явления, наблюдавшиеся между сроками (за 1-3 часа до срока); квадратными скобками обозначены град или гололедные отложения с указанием их диаметра в мм.
Облачность - указаны через наклонную черту общая и нижняя облачность в баллах и высота нижней границы облаков в метрах; квадратными скобками обозначены формы облаков: Ci - перистые, Cs - перисто-слоистые, Cc - перисто-кучевые, Ac - высококучевые, As - высокослоистые, Sc - слоисто-кучевые, Ns - слоисто-дождевые, Cu - кучевые, Cb - кучево-дождевые. Подробнее классификацию облаков см. в Атласе облаков (PDF).
T - Температура воздуха - температура, измеренная на высоте 2 м над землей.
Td - Температура точки росы - температура, при понижении до которой содержащийся в воздухе водяной пар достигнет насыщения.
f - Относительная влажность воздуха - влажноcть воздуха, измеренная на высоте 2 м над землей.
Te - Эффективная температура - температура, которую ощущает одетый по сезону человек в тени. Характеристика душности погоды. При расчете учитывается влияние влажности воздуха и скорости ветра на теплоощущения человека.
Tes - Эффективная температура на солнце - температура, которую ощущает человек, с поправкой на солнечный нагрев. Характеристика знойности погоды. Зависит от высоты солнца над горизонтом, облачности и скорости ветра. Ночью, в пасмурную погоду, а также при ветре 12 м/с и более поправка равна нулю.
P - Атмосферное давление - приведенное к уровню моря атмосферное давление.
Po - Атмосферное давление - измеренное на уровне метеостанции атмосферное давление.
Tmin - Минимальная температура - минимум температуры воздуха на высоте 2 м над землей.
Tmax - Максимальная температура - максимум температуры воздуха на высоте 2 м над землей.
R - Количество осадков - Количество выпавших осадков за период времени, мм. При наведении курсора мыши на число - период времени, за который выпало указанное количество осадков.
R24 - Количество осадков - Количество выпавших осадков за 24 часа, мм.
S - Снежный покров - Высота снежного покрова, см. При наведении курсора мыши на число - состояние снежного покрова и степень покрытия местности в баллах.